Plymouth, NH

7:49 PM EST on January 22, 2018 (GMT -0500)
Plymouth

Weather History for K1P1 - March, 2013

Change the Weather History Date:

Thursday, March 7, 2013

  Actual Average (KLCI) Record (KLCI)
Temperature  
Mean Temperature 34 °F -  
Max Temperature 37 °F 37 °F 55 °F (2012)
Min Temperature 31 °F 16 °F -7 °F (2007)
Degree Days  
Heating Degree Days 31    
Moisture  
Dew Point 25 °F    
Average Humidity 73    
Maximum Humidity 97    
Minimum Humidity 58    
Precipitation  
Precipitation 0.04 in - - ()
Sea Level Pressure  
Sea Level Pressure 30.12 in    
Wind  
Wind Speed 5 mph (ENE)    
Max Wind Speed 12 mph    
Max Gust Speed 17 mph    
Visibility 9 miles    
Events Snow    
Averages and records for this station are not official NWS values.
T = Trace of Precipitation, MM = Missing Value Source: NWS Daily Summary

Daily Weather History Graph

Daily Weather History Graph

Search for Another Location

Airport or City:

Trip Planner

Search our weather history database for the weather conditions in past years. The results will help you decide how hot, cold, wet, or windy it might be!

Date:

Astronomy

Mar. 07, 2013 Rise Set
Actual Time 6:13 AM EST 5:43 PM EST
Civil Twilight 5:44 AM EST 6:12 PM EST
Nautical Twilight 5:11 AM EST 6:45 PM EST
Astronomical Twilight 4:37 AM EST 7:19 PM EST
Moon 3:17 AM EST (3/7) 1:21 PM EST (3/7)
Length of Visible Light 12h 27m
Length of Day
11h 30m
Waning Crescent, 20% of the Moon is Illuminated
Mar 7
Waning Crescent
Mar 11
New
Mar 19
First Quarter
Mar 27
Full
Apr 3
Last Quarter

Hourly Weather History & Observations

Time (EST) Temp. Windchill Dew Point Humidity Pressure Visibility Wind Dir Wind Speed Gust Speed Precip Events Conditions
12:15 AM 32.9 °F 25.9 °F 22.8 °F 66% 30.16 in 10.0 mi ENE 8.1 mph 17.3 mph N/A   Unknown
12:35 AM 32.9 °F 24.1 °F 22.6 °F 66% 30.16 in 10.0 mi East 11.5 mph - N/A   Unknown
12:55 AM 32.9 °F 26.7 °F 22.8 °F 66% 30.16 in 10.0 mi East 6.9 mph - N/A   Unknown
1:15 AM 32.9 °F 27.5 °F 22.6 °F 66% 30.17 in 10.0 mi East 5.8 mph 9.2 mph N/A   Unknown
1:35 AM 32.9 °F 26.7 °F 22.6 °F 66% 30.18 in 10.0 mi East 6.9 mph - N/A   Unknown
1:55 AM 32.9 °F 25.3 °F 22.5 °F 65% 30.17 in 10.0 mi ENE 9.2 mph 16.1 mph N/A   Unknown
2:15 AM 32.5 °F 26.2 °F 22.6 °F 67% 30.16 in 10.0 mi East 6.9 mph - N/A   Unknown
2:35 AM 32.4 °F 26.9 °F 22.8 °F 68% 30.15 in 10.0 mi ENE 5.8 mph - N/A   Unknown
2:55 AM 32.7 °F 27.3 °F 21.9 °F 64% 30.14 in 10.0 mi NE 5.8 mph - N/A   Unknown
3:15 AM 32.5 °F - 21.9 °F 65% 30.14 in 10.0 mi Calm Calm - N/A   Unknown
3:35 AM 32.4 °F 27.9 °F 22.1 °F 66% 30.14 in 10.0 mi NNE 4.6 mph - N/A   Unknown
3:55 AM 32.4 °F 25.3 °F 21.9 °F 65% 30.15 in 10.0 mi NNE 8.1 mph - N/A   Unknown
4:15 AM 32.5 °F 28.1 °F 21.7 °F 64% 30.14 in 10.0 mi NNE 4.6 mph - N/A   Unknown
4:35 AM 32.4 °F 29.1 °F 21.7 °F 65% 30.14 in 10.0 mi NNE 3.5 mph - N/A   Unknown
4:55 AM 32.2 °F 27.7 °F 21.7 °F 65% 30.14 in 10.0 mi NE 4.6 mph - N/A   Unknown
5:15 AM 32.2 °F - 21.7 °F 65% 30.14 in 10.0 mi Calm Calm - N/A   Unknown
5:35 AM 32.0 °F 28.7 °F 21.9 °F 66% 30.14 in 10.0 mi ENE 3.5 mph - N/A   Unknown
5:55 AM 32.0 °F - 22.1 °F 67% 30.14 in 10.0 mi Calm Calm - N/A   Unknown
6:15 AM 32.0 °F - 22.1 °F 67% 30.15 in 10.0 mi Calm Calm - N/A   Unknown
6:35 AM 32.0 °F - 22.5 °F 68% 30.15 in 10.0 mi Calm Calm - N/A   Unknown
6:55 AM 32.0 °F 28.7 °F 21.9 °F 66% 30.15 in 10.0 mi NE 3.5 mph - N/A   Unknown
7:15 AM 32.0 °F 27.5 °F 22.1 °F 67% 30.15 in 10.0 mi East 4.6 mph - N/A   Unknown
7:35 AM 32.0 °F 28.7 °F 22.3 °F 67% 30.15 in 10.0 mi East 3.5 mph - N/A   Unknown
7:55 AM 32.0 °F 28.7 °F 22.3 °F 67% 30.15 in 10.0 mi East 3.5 mph - N/A   Unknown
8:15 AM 32.0 °F 28.7 °F 22.3 °F 67% 30.15 in 10.0 mi East 3.5 mph - N/A   Unknown
8:35 AM 32.0 °F - 22.3 °F 67% 30.15 in 10.0 mi Calm Calm - N/A   Unknown
8:55 AM 32.5 °F - 22.1 °F 65% 30.15 in 10.0 mi Calm Calm - N/A   Unknown
9:15 AM 32.9 °F 27.5 °F 22.3 °F 65% 30.14 in 10.0 mi NNE 5.8 mph - N/A   Unknown
9:35 AM 33.3 °F 27.9 °F 22.3 °F 64% 30.14 in 10.0 mi NE 5.8 mph - N/A   Unknown
9:55 AM 34.0 °F 29.8 °F 22.3 °F 62% 30.13 in 10.0 mi North 4.6 mph - N/A   Unknown
10:15 AM 34.2 °F 27.5 °F 22.6 °F 63% 30.13 in 10.0 mi ENE 8.1 mph - N/A   Unknown
10:35 AM 35.1 °F 29.3 °F 23.2 °F 62% 30.12 in 10.0 mi East 6.9 mph - N/A   Unknown
11:15 AM 35.6 °F - 23.0 °F 60% 30.12 in 10.0 mi Calm Calm - N/A   Unknown
11:35 AM 35.6 °F 31.7 °F 22.8 °F 60% 30.12 in 10.0 mi NE 4.6 mph - N/A   Unknown
12:15 PM 36.5 °F 33.9 °F 23.2 °F 59% 30.11 in 10.0 mi ENE 3.5 mph - N/A   Unknown
12:35 PM 36.5 °F - 23.5 °F 59% 30.11 in 10.0 mi Calm Calm - N/A   Unknown
12:55 PM 36.7 °F 34.1 °F 23.2 °F 58% 30.10 in 10.0 mi NE 3.5 mph - N/A   Unknown
1:15 PM 36.7 °F 32.0 °F 24.1 °F 60% 30.10 in 10.0 mi East 5.8 mph - N/A   Unknown
1:35 PM 37.2 °F 34.7 °F 23.9 °F 59% 30.09 in 10.0 mi ENE 3.5 mph - N/A   Unknown
1:55 PM 37.4 °F 33.8 °F 23.9 °F 58% 30.09 in 10.0 mi East 4.6 mph - N/A   Unknown
2:15 PM 37.2 °F 34.7 °F 24.1 °F 59% 30.08 in 10.0 mi East 3.5 mph - N/A   Unknown
2:35 PM 37.6 °F - 24.3 °F 59% 30.08 in 10.0 mi Calm Calm - N/A   Unknown
2:55 PM 37.9 °F 35.5 °F 24.8 °F 59% 30.08 in 10.0 mi SE 3.5 mph - N/A   Unknown
3:15 PM 37.4 °F 32.8 °F 26.4 °F 65% 30.09 in 10.0 mi ESE 5.8 mph - N/A   Unknown
3:35 PM 35.4 °F 31.5 °F 28.2 °F 75% 30.09 in 10.0 mi SE 4.6 mph - N/A   Unknown
3:55 PM 33.8 °F 29.6 °F 29.5 °F 84% 30.10 in 2.5 mi SSE 4.6 mph - N/A Snow Light Snow
4:15 PM 32.9 °F 29.8 °F 30.2 °F 90% 30.10 in 1.8 mi SSE 3.5 mph - N/A Snow Light Snow
4:35 PM 32.9 °F - 30.7 °F 92% 30.10 in 2.0 mi Calm Calm - N/A Snow Light Snow
4:55 PM 32.5 °F - 30.9 °F 94% 30.10 in 3.0 mi Calm Calm - N/A Snow Light Snow
5:15 PM 32.4 °F - 31.1 °F 95% 30.10 in 3.0 mi Calm Calm - N/A Snow Light Snow
5:35 PM 32.2 °F - 31.1 °F 96% 30.10 in 5.0 mi Calm Calm - N/A Snow Light Snow
5:55 PM 32.0 °F - 31.1 °F 96% 30.10 in 10.0 mi Calm Calm - N/A   Unknown
6:15 PM 32.0 °F 28.7 °F 31.1 °F 96% 30.11 in 10.0 mi ENE 3.5 mph - N/A   Unknown
6:35 PM 32.0 °F - 31.1 °F 96% 30.11 in 10.0 mi Calm Calm - N/A   Unknown
6:55 PM 32.0 °F - 30.9 °F 96% 30.11 in 10.0 mi Calm Calm - N/A Snow Light Snow
8:55 PM 31.8 °F - 30.7 °F 96% 30.09 in 10.0 mi Calm Calm - N/A   Unknown
9:15 PM 31.8 °F - 30.7 °F 96% 30.07 in 10.0 mi Calm Calm - N/A   Unknown
9:35 PM 31.8 °F - 30.7 °F 96% 30.07 in 10.0 mi Calm Calm - N/A   Unknown
9:55 PM 32.0 °F - 30.2 °F 93% 30.07 in 10.0 mi Calm Calm - N/A   Unknown
10:15 PM 32.0 °F - 30.2 °F 93% 30.07 in 7.0 mi Calm Calm - N/A Snow Light Snow
10:35 PM 31.8 °F - 30.2 °F 94% 30.07 in 2.0 mi Calm Calm - N/A Snow Light Snow
10:55 PM 31.8 °F - 30.7 °F 96% 30.08 in 1.2 mi Calm Calm - N/A Snow Snow
11:15 PM 31.6 °F - 30.7 °F 96% 30.08 in 1.0 mi Calm Calm - 0.02 in Snow Snow
11:35 PM 31.1 °F - 30.4 °F 97% 30.08 in 1.2 mi Calm Calm - 0.03 in Snow Light Snow
11:55 PM 31.1 °F - 30.2 °F 96% 30.08 in 2.5 mi Calm Calm - 0.04 in Snow Light Snow